Change the Weather History Date:

Monday, January 7, 2013

  Actual Average (KGAG) Record (KGAG)
Temperature  
Mean Temperature 42 °F -  
Max Temperature 53 °F 42 °F 84 °F (2006)
Min Temperature 32 °F 15 °F -10 °F (1988)
Degree Days  
Heating Degree Days 22    
Moisture  
Dew Point 24 °F    
Average Humidity 52    
Maximum Humidity 69    
Minimum Humidity 30    
Precipitation  
Precipitation 0.00 in - - ()
Sea Level Pressure  
Sea Level Pressure 30.12 in    
Wind  
Wind Speed 12 mph (SSW)    
Max Wind Speed 21 mph    
Max Gust Speed 30 mph    
Visibility 10 miles    
Events      
Averages and records for this station are not official NWS values.
T = Trace of Precipitation, MM = Missing Value Source: NWS Daily Summary

Daily Weather History Graph

Daily Weather History Graph

Search for Another Location

Airport or City:

Trip Planner

Search our weather history database for the weather conditions in past years. The results will help you decide how hot, cold, wet, or windy it might be!

Date:

Astronomy

Jan. 07, 2013 Rise Set
Actual Time 7:50 AM CST 5:39 PM CST
Civil Twilight 7:21 AM CST 6:07 PM CST
Nautical Twilight 6:49 AM CST 6:39 PM CST
Astronomical Twilight 6:18 AM CST 7:10 PM CST
Moon 3:17 AM CST (1/7) 1:49 PM CST (1/7)
Length of Visible Light 10h 45m
Length of Day
9h 48m
Waning Crescent, 22% of the Moon is Illuminated
Jan 7
Waning Crescent
Jan 11
New
Jan 18
First Quarter
Jan 26
Full
Feb 3
Last Quarter

Hourly Weather History & Observations

Time (CST) Temp. Windchill Dew Point Humidity Pressure Visibility Wind Dir Wind Speed Gust Speed Precip Events Conditions
12:15 AM 32.0 °F 24.2 °F 23.0 °F 69% 30.24 in 10.0 mi SSW 9.2 mph - N/A   Clear
12:35 AM 32.0 °F 24.2 °F 23.0 °F 69% 30.24 in 10.0 mi SSW 9.2 mph - N/A   Clear
12:55 AM 35.6 °F 27.1 °F 23.0 °F 60% 30.24 in 10.0 mi SSW 12.7 mph - N/A   Clear
1:15 AM 35.6 °F 27.1 °F 23.0 °F 60% 30.23 in 10.0 mi SSW 12.7 mph - N/A   Clear
1:35 AM 35.6 °F 27.5 °F 23.0 °F 60% 30.23 in 10.0 mi SSW 11.5 mph - N/A   Clear
1:55 AM 35.6 °F 28.0 °F 23.0 °F 60% 30.23 in 10.0 mi SSW 10.4 mph - N/A   Clear
2:15 AM 35.6 °F 27.5 °F 23.0 °F 60% 30.23 in 10.0 mi SSW 11.5 mph - N/A   Clear
2:35 AM 33.8 °F 25.3 °F 23.0 °F 65% 30.23 in 10.0 mi SSW 11.5 mph - N/A   Clear
2:55 AM 33.8 °F 24.8 °F 23.0 °F 65% 30.23 in 10.0 mi South 12.7 mph - N/A   Clear
3:15 AM 33.8 °F 24.8 °F 23.0 °F 65% 30.21 in 10.0 mi SSW 12.7 mph - N/A   Clear
3:35 AM 35.6 °F 27.1 °F 23.0 °F 60% 30.21 in 10.0 mi SSW 12.7 mph - N/A   Clear
3:55 AM 35.6 °F 26.6 °F 23.0 °F 60% 30.21 in 10.0 mi South 13.8 mph - N/A   Clear
4:15 AM 33.8 °F 24.3 °F 23.0 °F 65% 30.20 in 10.0 mi South 13.8 mph - N/A   Clear
4:35 AM 33.8 °F 25.3 °F 23.0 °F 65% 30.19 in 10.0 mi South 11.5 mph - N/A   Clear
4:55 AM 32.0 °F 23.6 °F 23.0 °F 69% 30.19 in 10.0 mi South 10.4 mph - N/A   Clear
5:35 AM 33.8 °F 23.9 °F 23.0 °F 65% 30.17 in 10.0 mi South 15.0 mph 19.6 mph N/A   Clear
6:15 AM 33.8 °F 24.3 °F 23.0 °F 65% 30.17 in 10.0 mi SSW 13.8 mph - N/A   Clear
6:35 AM 35.6 °F 28.0 °F 23.0 °F 60% 30.18 in 10.0 mi SSW 10.4 mph 18.4 mph N/A   Clear
6:55 AM 33.8 °F 28.6 °F 23.0 °F 65% 30.18 in 10.0 mi SW 5.8 mph 16.1 mph N/A   Clear
7:15 AM 33.8 °F 25.8 °F 23.0 °F 65% 30.18 in 10.0 mi SW 10.4 mph - N/A   Clear
7:55 AM 33.8 °F 28.6 °F 23.0 °F 65% 30.17 in 10.0 mi SSW 5.8 mph - N/A   Clear
8:15 AM 33.8 °F 29.6 °F 23.0 °F 65% 30.18 in 10.0 mi SW 4.6 mph - N/A   Clear
8:55 AM 35.6 °F 29.2 °F 23.0 °F 60% 30.18 in 10.0 mi SSW 8.1 mph - N/A   Clear
9:15 AM 37.4 °F 32.1 °F 23.0 °F 56% 30.18 in 10.0 mi SSW 6.9 mph - N/A   Clear
9:35 AM 39.2 °F 33.0 °F 24.8 °F 56% 30.19 in 10.0 mi SSW 9.2 mph - N/A   Clear
9:55 AM 41.0 °F 34.7 °F 23.0 °F 49% 30.19 in 10.0 mi SSW 10.4 mph - N/A   Clear
10:15 AM 42.8 °F 35.4 °F 23.0 °F 46% 30.19 in 10.0 mi SSW 15.0 mph 20.7 mph N/A   Clear
10:55 AM 46.4 °F 39.2 °F 23.0 °F 40% 30.19 in 10.0 mi SSW 18.4 mph - N/A   Clear
11:15 AM 46.4 °F 39.5 °F 23.0 °F 40% 30.18 in 10.0 mi SSW 17.3 mph 24.2 mph N/A   Clear
11:35 AM 46.4 °F 40.1 °F 23.0 °F 40% 30.16 in 10.0 mi SSW 15.0 mph 24.2 mph N/A   Clear
11:55 AM 50.0 °F - 23.0 °F 35% 30.15 in 10.0 mi SSW 18.4 mph 24.2 mph N/A   Clear
12:15 PM 50.0 °F - 23.0 °F 35% 30.13 in 10.0 mi SSW 18.4 mph 24.2 mph N/A   Clear
12:35 PM 50.0 °F - 23.0 °F 35% 30.11 in 10.0 mi SSW 20.7 mph 29.9 mph N/A   Clear
12:55 PM 50.0 °F - 23.0 °F 35% 30.09 in 10.0 mi SSW 17.3 mph 25.3 mph N/A   Clear
1:15 PM 51.8 °F - 23.0 °F 33% 30.09 in 10.0 mi SSW 16.1 mph 23.0 mph N/A   Clear
1:35 PM 51.8 °F - 23.0 °F 33% 30.07 in 10.0 mi SSW 18.4 mph 24.2 mph N/A   Clear
1:55 PM 51.8 °F - 23.0 °F 33% 30.07 in 10.0 mi SSW 13.8 mph 23.0 mph N/A   Clear
2:15 PM 53.6 °F - 23.0 °F 30% 30.07 in 10.0 mi South 13.8 mph - N/A   Clear
2:35 PM 53.6 °F - 23.0 °F 30% 30.06 in 10.0 mi SSW 15.0 mph 21.9 mph N/A   Clear
2:55 PM 53.6 °F - 23.0 °F 30% 30.05 in 10.0 mi SSW 15.0 mph - N/A   Clear
3:15 PM 53.6 °F - 23.0 °F 30% 30.05 in 10.0 mi SSW 15.0 mph 21.9 mph N/A   Clear
3:35 PM 53.6 °F - 23.0 °F 30% 30.05 in 10.0 mi South 16.1 mph 21.9 mph N/A   Clear
3:55 PM 51.8 °F - 23.0 °F 33% 30.05 in 10.0 mi South 13.8 mph - N/A   Clear
4:15 PM 51.8 °F - 23.0 °F 33% 30.05 in 10.0 mi South 11.5 mph 18.4 mph N/A   Clear
4:35 PM 50.0 °F - 24.8 °F 37% 30.04 in 10.0 mi South 13.8 mph 17.3 mph N/A   Clear
4:55 PM 50.0 °F - 23.0 °F 35% 30.04 in 10.0 mi South 11.5 mph 17.3 mph N/A   Clear
5:15 PM 50.0 °F - 24.8 °F 37% 30.04 in 10.0 mi South 10.4 mph - N/A   Clear
5:55 PM 46.4 °F 41.1 °F 26.6 °F 46% 30.04 in 10.0 mi South 11.5 mph - N/A   Clear
6:15 PM 44.6 °F 37.8 °F 26.6 °F 49% 30.03 in 10.0 mi SSE 15.0 mph - N/A   Clear
6:35 PM 44.6 °F 37.2 °F 26.6 °F 49% 30.03 in 10.0 mi South 17.3 mph - N/A   Clear
6:55 PM 42.8 °F 35.4 °F 26.6 °F 53% 30.02 in 10.0 mi South 15.0 mph - N/A   Clear
7:15 PM 42.8 °F 35.4 °F 26.6 °F 53% 30.02 in 10.0 mi South 15.0 mph - N/A   Clear
7:35 PM 42.8 °F 34.8 °F 26.6 °F 53% 30.02 in 10.0 mi South 17.3 mph 20.7 mph N/A   Clear
7:55 PM 41.0 °F 33.1 °F 26.6 °F 57% 30.02 in 10.0 mi South 15.0 mph - N/A   Clear
8:15 PM 41.0 °F 32.8 °F 26.6 °F 57% 30.02 in 10.0 mi South 16.1 mph - N/A   Clear
8:35 PM 41.0 °F 33.1 °F 26.6 °F 57% 30.03 in 10.0 mi South 15.0 mph 20.7 mph N/A   Clear
8:55 PM 39.2 °F 31.6 °F 26.6 °F 61% 30.03 in 10.0 mi South 12.7 mph 18.4 mph N/A   Clear
9:15 PM 37.4 °F 29.3 °F 26.6 °F 65% 30.02 in 10.0 mi South 12.7 mph - N/A   Clear
9:35 PM 39.2 °F 30.8 °F 26.6 °F 61% 30.02 in 10.0 mi South 15.0 mph - N/A   Clear
9:55 PM 37.4 °F 29.3 °F 26.6 °F 65% 30.01 in 10.0 mi South 12.7 mph 18.4 mph N/A   Clear
10:15 PM 37.4 °F 28.9 °F 24.8 °F 60% 30.01 in 10.0 mi South 13.8 mph - N/A   Clear
10:35 PM 37.4 °F 28.9 °F 24.8 °F 60% 30.00 in 10.0 mi South 13.8 mph - N/A   Clear
10:55 PM 37.4 °F 28.9 °F 24.8 °F 60% 30.00 in 10.0 mi South 13.8 mph - N/A   Clear
11:35 PM 37.4 °F 27.8 °F 24.8 °F 60% 30.00 in 10.0 mi South 17.3 mph 24.2 mph N/A   Clear